Tracking 19920 objects as of 15-Oct-2019
HD Live streaming from Space Station
objects crossing your sky now

GALS 2

Track GALS 2 now!
GALS 2 is classified as:


NORAD ID: 23717
Int'l Code: 1995-063A
Perigee: 35,863.2 km
Apogee: 35,935.8 km
Inclination: 13.6 °
Period: 1,441.5 minutes
Semi major axis: 42270 km
RCS: 8.9125 m2 (large)
Launch date: November 17, 1995
Source: Commonwealth of Independent States (former USSR) (CIS)
Launch site: TYURATAM MISSILE AND SPACE COMPLEX (TTMTR)
aabbcc
Your satellite tracking list
Your tracking list is empty




NASA's NSSDC Master Catalog

Two Line Element Set (TLE):
1 23717U 95063A   19288.58030956 -.00000233  00000-0  00000+0 0  9995
2 23717  13.6063  21.3471 0008589 287.4655  79.6105  0.99895634 87327
Source of the keplerian elements: AFSPC